Погода в Экимчане

Погода в Экимчане : погода сейчас, прогноз погоды и архив. Всё, что Вы хотите узнать о погоде в Экимчане!

Хотите узнать прогноз погоды в Экимчане? Тогда Вам сюда: Погода в Экимчане

Поиск расширенной информации на нашем сайте:

Другие новости

Новости СМИ2

Главная страница сайта

Новости сайта

03.07.2017

Напоминаем, что на нашем специализированном сайте Метеоцентр.Азия вы можете получить высокодетализированные автоматические прогнозы погоды по пунктам России, СНГ и мира в авиационном формате (включающие направление и скорость ветра, видимость, явления погоды, количество и форму облачности, нижнюю и верхнюю границу облачности).

Рекомендуем: Психолог дистанционное обучение дистанционное обучение психология.

Погода в Экимчане - сегодня

Время (UTC), дата Ветер
(°,м/с) 
Видим.   Явления Облачность Т
(°С)
Тd
(°С)
f(%) Тe
(°С)
Pmin
(гПа)
dP
(гПа)
Po
(мм)
O2
(г/м3)
Тmin Tmax R s Состояние
почвы
06 18.07.18 270 (З) 20000 м    10/10 600 м кучево-дожд. 
[Cb cap|Ac trans]
+21.8 +18.3 81 +39  1001.8  -0.5  706  259           
09 18.07.18 200 (Ю) 20000 м  в посл. час ливневой дождь  9/9 100 м кучево-дожд. 
[Cb cap]
+21.5 +19.3 87 +41  1001.3  -0.5  706  259           
12 18.07.18 тихо ()   20000 м  {ливн. осадки}  10/10 100 м 
[Sc diur, vesp]
+20.3 +19.1 93 +39  1002.1  0.6  706  260    +26.2  0.5     
15 18.07.18 тихо ()   20000 м    10/10 200 м 
[Sc diur, vesp]
+18.9 +19.1 100 +38  1002.1  -0.5  706  261           
18 18.07.18 тихо ()   20000 м    10/10 200 м 
[Sc diur, vesp]
+18.2 +17.5 96 +34  1001.1  -0.9  705  262           
21 18.07.18 050 (СВ) 0050 м  туман  ?/?  
+18.1 +17.4 96 +35  1000.6  -0.5  705  262           
00 19.07.18 040 (СВ) 20000 м  {туман}  10/10 300 м 
[St]
+20.3 +18.3 88 +37  999.2  -0.9  704  260  +17.6        влажная 
03 19.07.18 тихо ()   10 км  слаб. дождь  10/8 100 м средняя 
[Sc diur, vesp|As op]
+21.1 +19.4 90 +41  998.5  -0.5  704  259           
06 19.07.18 140 (ЮВ) 2000 м  слаб. ливневой дождь  10/10 100 м кучево-дожд. 
[Cb cap]
+18.1 +17.3 95 +35  999  0.1  704  262           
09 19.07.18 040 (СВ) 2000 м  слаб. дождь{ливн. осадки}  10/10 200 м 
[Frnb|Ns]
+17.8 +16.3 91 +32  1000.2  705  263           
12 19.07.18 150 (ЮВ) 2000 м  слаб. дождь{ливн. осадки}  10/10 300 м 
[Frnb|Ns]
+15.7 +14.8 94 +27  1002.4  1.6  706  266    +21.5  31     
15 19.07.18 050 (СВ) 2000 м  слаб. дождь  10/10 300 м 
[Frnb|Ns]
+15.5 +14.3 93 +26  1003.1  0.6  706  266           
18 19.07.18 130 (ЮВ) 2000 м  слаб. дождь  10/10 200 м 
[Frnb|Ns]
+14.8 +13.9 94 +24  1003.6  0.3  707  267           
21 19.07.18 090 (В) 20000 м  {дождь}  10/8 200 м средняя 
[St|Ac trans]
+15 +13.7 92 +24  1004.1  0.5  707  267           
00 20.07.18 тихо ()   20000 м  {дождь}  10/8 1000 м средняя 
[Sc|Ac und]
+18.1 +14.9 82 +28  1003.4  -0.1  707  264  +14.7    10    мокрая 
03 20.07.18 тихо ()   20000 м    10/10 1000 м 
[Sc]
+20.8 +13.6 63 +29  1002.3  707  262           
06 20.07.18 100 (В) 20000 м    10/8 1000 м средняя 
[Sc|Ac und]
+20.8 +14.5 67 +30  1001.7  -0.5  706  261           
09 20.07.18 120 (ЮВ) 20000 м    10/10 1000 м 
[Sc]
+17.6 +13.9 79 +26  1003.3  0.8  707  265           
12 20.07.18 090 (В) 10 км  слаб. дождь  10/10 1000 м 
[Sc]
+13.4 +12.5 94 +21  1005.7  1.4  708  269    +22.1  0.0     
15 20.07.18 080 (В) 10 км  слаб. дождь  10/10 1000 м 
[Sc]
+11.5 +10.6 94 +15  1006.9  0.6  708  272           
18 20.07.18 тихо ()   н/о    н/о 
+10.5 +9.7 95 +12  1007.3  0.2  708  273           
21 20.07.18 110 (В) 20000 м    10/10 1000 м 
[Sc]
+10.8 +8.6 86 +12  1009.1  1.7  710  273           
00 21.07.18 030 (СВ) 20000 м    9/9 600 м кучево-дожд. 
[Cb cap]
+15.2 +10 71 +18  1008.7  0.5  710  269  +9.9      влажная 
03 21.07.18 050 (СВ) 20000 м    3/3 1000 м 
[Cu hum]
+19.7 +11.2 58 +25  1007.2  -0.5  710  265           
06 21.07.18 090 (В) 20000 м    8/4 1000 м кучево-дожд., верхняя 
[Cb cap|Ci fib]
+22.6 +12.3 52 +28  1005.8  -0.6  709  262           
Время (UTC), дата Ветер
(°,м/с) 
Видим.   Явления Облачность Т
(°С)
Тd
(°С)
f(%) Тe
(°С)
Pmin
(гПа)
dP
(гПа)
Po
(мм)
O2
(г/м3)
Тmin Tmax R s Состояние
почвы

Для получения пояснительной информации подведите курсор к названию столбца.

ПОГОДА в Экимчане - архив

Всё, что Вы хотите узнать о погоде в Экимчане - удобно и подробно!

Выберите нужную дату (начиная с 1 января 2015* года) и нажмите кнопку "Найти".
Будут отображены архивные сводки погоды по пункту Экимчан, начиная с указанной даты.


Отображать данные в формате CSV (для использования в таблицах Excel)


Внимание! Наш архив погоды предназначен исключительно для личного некоммерческого использования в познавательных целях. Если Вам необходимы официальные справки о состоянии погоды (для производственных, юридических, коммерческих и т.п. целей), обращайтесь в органы Росгидромета.

*Примечание: данная дата относится к архиву по метеостанциям СССР (Россия, СНГ, Балтия).
Архив по метеостанциям Зарубежной Европы и Азии (кроме Китая) хранится 10 дней, по другим регионам земного шара (Китай, Африка, Америка, Австралия, Океания) - 1 день.

Экимчан - район местоположения метеостанции


Название, широта, долгота, высота метеостанции:
Экимчан 53.1°ш. 133°д. 542 м над ур. моря [Российская Федерация]

Дополнительная информация

В oтличие oт бoльшинства пoгoдных сайтoв мы публикуем пoдрoбную метеoинфoрмацию в детальнoм прoфессиoнальнoм фoрмате.

Характеристики температуры и влажнoсти вoздуха измеряются на высoте 2 м в тени вдали oт зданий и деревьев.
Скoрoсть ветра измеряется на высoте 10 м (на урoвне рoста челoвека скoрoсть ветра ниже в 1.5-2 раза). Если метеoстанция нахoдится в гoрoде или в лесу, тo скoрoсть ветра занижена на 2-4 м/с пo сравнению с oткрытым местoм. Скoрoсть ветра над акватoриями крупных рек и oзёр, а также на вершинах хoлмoв на 2-5 м/с выше, чем в oбычных услoвиях.
Атмoсфернoе давление в разных тoчках местнoсти мoжет значительнo oтличаться oт давления на метеoстанции, в зависимoсти oт услoвий рельефа (при пoдъёме на 10 м давление пoнижается примернo на 1 мм рт.ст.).